星链-11109 (STARLINK-11109)

导读 | 星芒AI

STARLINK-11109 是 SpaceX Starlink 卫星互联网项目中的一颗低轨卫星。它属于 Starlink 的第二代卫星群,旨在为全球用户提供高速、低延迟的互联网服务。该卫星于近期发射,运行在约 550 公里的轨道高度,采用先进推进系统和激光通信技术,以提升网络效率和稳定性。Starlink 项目致力于构建覆盖全球的卫星网络,尤其服务于偏远和网络基础设施薄弱地区。

基本信息
目录编号:
60306
目录名称:
STARLINK-11109
国际标识:
2024-133F
轨道中心:
EARTH
卫星名称:
星链-11109 (STARLINK-11109)
卫星全名:
星链-11109 (STARLINK-11109)
卫星状态:
在轨 (已飞行458 天)
发射日期:
2024-07-28 UTC
国别 :
美国 (US)
星等 :
--
轨道信息
数据来源 国际轨道数据
星历时间: 2025-10-28T10:54:57+0800
1天前
查看轨道信息
半长轴: 6737.832km
偏心率: 0.0000467
轨道倾角: 53.158°
近地点辐角 137.230°
升交点赤经 79.674°
平近点角 222.875°
近地点: 359.382km
远地点: 360.012km
周期: 91.736分钟
每日圈数: 15.697213
详细信息
卫星平台:
Starlink v2.0 mini
运营商:
太空探索技术公司
运营商所在国:
美国
制造商(研发单位):
太空探索技术公司
制造商所在国:
美国
使用方式:
暂无
卫星简介
星链(Starlink)计划是由太空探索技术公司(SpaceX)提出的一个巨型低轨卫星互联网星座项目,计划在2019年至2024年间在太空搭建由约1.2万颗卫星组成的“星链”网络,其中1584颗将部署在地球上空550千米处的近地轨道,并从2020年开始工作。该卫星仍在工作。
2D轨道图
3D轨道图
轨道高度分析图
轨道倾角分析图
轨道综合分析图
查看轨道综合分析图